Regional Weather Roundup
Issued by NWS

Home | Current Version | Previous Version | Graphics & Text | Print | Product List | Glossary On
Versions: 1 2 3 4 5 6 7 8 9 10 11 12 13 14 15 16 17 18 19 20 21 22 23 24 25 26 27 28 29 30 31 32 33 34 35 36 37 38 39 40 41 42 43 44 45 46 47 48 49 50
181
ASUS43 KMPX 102201
RWRMN
WEATHER ROUNDUP FOR MINNESOTA
NATIONAL WEATHER SERVICE TWIN CITIES/CHANHASSEN MN
400 PM CST SUN DEC 10 2017


NOTE: "FAIR" INDICATES FEW OR NO CLOUDS BELOW 12,000 FEET WITH NO
SIGNIFICANT WEATHER AND/OR OBSTRUCTIONS TO VISIBILITY. N/A MEANS
CURRENT SKY AND/OR WEATHER CONDITIONS ARE NOT AVAILABLE.

MNZ060>063-068>070-102300-
   Twin Cities Metro

CITY           SKY/WX    TMP DP  RH WIND       PRES   REMARKS
TWIN CITIES    PTCLDY    29  22  75 NW5       30.03R WCI  24
ST PAUL        PTCLDY    28  20  71 NW9       30.05R WCI  19
CRYSTAL        CLEAR     28  18  66 NW5       30.02R WCI  23
BLAINE         PTCLDY    30  21  69 NW6       30.02R WCI  24
LAKEVILLE      CLOUDY    27  21  80 NW7       30.03R WCI  19
EDEN PRAIRIE   CLEAR     30  21  69 NW5       30.02R WCI  25
SOUTH ST PAUL  PTCLDY    29  21  70 NW5       30.03R WCI  24
LAKE ELMO      FAIR      30  21  69 NW6       30.03R WCI  24
$$
MNZ001>005-007-008-013>017-022>024-027-028-102300-
   Northwest Minnesota

CITY           SKY/WX    TMP DP  RH WIND       PRES   REMARKS
BEMIDJI        CLEAR     20  15  79 CALM      29.99S
HALLOCK        CLEAR     23  19  86 S3        30.00F
ROSEAU         CLEAR     19  14  79 CALM      30.00S
WARROAD        CLOUDY    18  12  79 SE3       30.00F
CROOKSTON      CLOUDY    23  19  86 SW3       30.03S
FOSSTON        CLOUDY    18  14  86 CALM      30.00F
DETROIT LAKES  CLEAR     23  21  93 CALM      30.01S
MOORHEAD       CLOUDY    27  19  74 CALM      30.04F
PARK RAPIDS    CLEAR     25  18  74 W5        29.98S WCI  19
MAHNOMEN       FAIR      21  17  84 CALM      30.00F
$$
MNZ006-009>011-018-025>026-102300-
   North Central Minnesota

CITY           SKY/WX    TMP DP  RH WIND       PRES   REMARKS
BAUDETTE       CLOUDY    17  12  80 CALM      30.00S
FLAG ISLAND    FLURRIES  16  12  86 SE5       29.99S WCI   9
INTL FALLS     CLOUDY    15   8  73 NW3       30.01R
WASKISH        CLOUDY    19  16  86 CALM      30.00F
BIG FORK       CLOUDY    19  12  73 N3        30.00R
GRAND RAPIDS   MOCLDY    20  14  77 NW3       30.02R
ORR            MOCLDY    16   7  67 CALM      29.98R
COOK           PTCLDY    16   9  73 CALM      30.01R
WALKER         FAIR      24  15  71 W3        29.99S
$$
MNZ012-019>021-037-102300-
   Northeast Minnesota

CITY           SKY/WX    TMP DP  RH WIND       PRES   REMARKS
DULUTH         PTCLDY    17  10  74 NW6       29.99R WCI   9
ELY            CLEAR     14   7  73 NW3       29.99R
HIBBING        LGT SNOW  15  11  83 NW7       30.00R FOG     WCI   5
EVELETH        PTCLDY    18   7  62 W7        30.00S WCI   8
DULUTH HARBOR  CLEAR     23  16  74 W10       30.05R WCI  12
TWO HARBORS    CLEAR     25  10  54 NW5       29.99R WCI  19
G MARAIS ARPRT CLOUDY     9   0  66 NW3       29.93S
$$
MNZ029>031-032-039>041-046>048-054>057-064-102300-
   West Central Minnesota

CITY           SKY/WX    TMP DP  RH WIND       PRES   REMARKS
FERGUS FALLS   CLOUDY    27  21  80 NW7       30.06S WCI  19
MORRIS         CLOUDY    32  21  64 NW7       30.02S WCI  26
ALEXANDRIA     PTCLDY    28  20  71 NW6       30.01R WCI  22
ELBOW LAKE     CLOUDY    28  22  77 W8        30.03S HAZE    WCI  20
WADENA         CLEAR     25  18  74 NW5       30.00S WCI  19
GLENWOOD       CLOUDY    28  21  74 W7        30.02R WCI  21
BENSON         CLOUDY    32  25  74 N7        30.05R WCI  26
ORTONVILLE     CLOUDY    36  23  60 NW3       30.04S
MADISON        CLOUDY    37  27  65 NW5       30.04S
WILLMAR        FAIR      34  23  64 NW8       30.04R WCI  27
$$
MNZ033>034-036-042>043-049>051-058-059-102300-
   Central Minnesota

CITY           SKY/WX    TMP DP  RH WIND       PRES   REMARKS
ST CLOUD       CLEAR     28  20  71 NW6       30.03R WCI  22
SAUK CENTRE    MOCLDY    28  21  76 CALM      30.01S
PAYNESVILLE    CLOUDY    30  23  75 NW6       30.03R WCI  24
AITKIN         CLEAR     25  16  68 CALM      30.00R
PINE RIVER     CLEAR     25  16  68 CALM      30.03S
BRAINERD       CLEAR     28  17  63 W5        30.01R WCI  23
STAPLES        CLEAR     25  18  74 NW3       30.00S
LONG PRAIRIE   FAIR      28  19  69 W7        30.01S WCI  21
LITTLE FALLS   CLEAR     30  14  51 W5        30.02S WCI  25
LITCHFIELD     PTCLDY    30  25  80 CALM      30.03R
BUFFALO        CLEAR     30  21  69 W6        30.04R WCI  24
MAPLE LAKE     CLEAR     30  23  74 NW5       30.04R WCI  26
HUTCHINSON     MOCLDY    32  24  73 NW5       30.04R WCI  27
$$
MNZ037-044-045-052-053-102300-
   East Central Minnesota

CITY           SKY/WX    TMP DP  RH WIND       PRES   REMARKS
PRINCETON      CLEAR     28  19  69 W8        30.04R WCI  20
MORA           CLEAR     27  18  69 N3        30.04R
CAMBRIDGE      CLEAR     30  19  64 W5        30.03R WCI  25
RUSH CITY      PTCLDY    27  18  70 NW6       30.03R WCI  20
MOOSE LAKE     CLOUDY    27  18  69 NW6       30.00R WCI  20
HINCKLEY       FAIR      28  19  69 NW3       30.02R
CLOQUET        CLOUDY    21  12  68 NW6       30.00R WCI  14
MCGREGOR       CLEAR     25  18  74 NW3       30.02R
$$
MNZ071>073-080-081-089-090-097-098-102300-
   Southwest Minnesota

CITY           SKY/WX    TMP DP  RH WIND       PRES   REMARKS
MONTEVIDEO     MOCLDY    36  25  64 NW6       30.04S
GRANITE FALLS  CLOUDY    37  26  65 W7        30.06R
CANBY          CLOUDY    38  28  68 CALM      30.05S
MARSHALL       CLOUDY    37  26  64 N8        30.05R
REDWOOD FALLS  CLOUDY    34  22  61 NW8       30.04R WCI  27
OLIVIA         CLOUDY    34  27  75 NW8       30.02S WCI  27
PIPESTONE      PTCLDY    39  28  65 NW7       30.03R
WINDOM           N/A     36  21  55 NW7       30.04R
WORTHINGTON    CLOUDY    38  28  67 W12       30.04R
JACKSON        CLEAR     36  27  69 MISG      30.03R
TRACY          CLOUDY    38  28  69 NW7       30.04R
$$
MNZ065>067-074>077-082>085-091>093-102300-
   South Central Minnesota

CITY           SKY/WX    TMP DP  RH WIND       PRES   REMARKS
MANKATO        CLOUDY    30  23  75 N5        30.04R WCI  25
NEW ULM        PTCLDY    34  23  64 NW9       30.04R WCI  26
ST JAMES       CLEAR     34  25  69 NW9       30.06R WCI  26
FAIRMONT       CLEAR     35  25  66 NW10      30.04R WCI  27
GLENCOE        PTCLDY    31  24  75 W6        30.03R WCI  25
FARIBAULT      CLOUDY    28  21  74 W5        30.03R WCI  23
WASECA         CLOUDY    28  23  80 NW5       30.04S WCI  23
ALBERT LEA     CLOUDY    30  21  69 NW8       30.02F WCI  23
$$
MNZ078>079-086>088-094>096-102300-
   Southeast Minnesota

CITY           SKY/WX    TMP DP  RH WIND       PRES   REMARKS
ROCHESTER      CLOUDY    28  22  78 NW8       30.00R WCI  20
RED WING       PTCLDY    28  18  64 NW3       30.02R
STANTON        CLOUDY    29  23  76 NW6       30.03R WCI  23
DODGE CENTER   CLOUDY    27  21  80 NW6       30.00F WCI  20
WINONA         CLOUDY    30  21  69 NW7       30.04R WCI  23
AUSTIN         CLOUDY    28  21  74 NW9       30.01S WCI  20
PRESTON        CLOUDY    28  21  75 NW8       30.01R WCI  19
$$
ABBREVIATIONS USED IN REMARKS
   TC - TEMPERATURES IN CELSIUS
  WCI - WIND CHILL INDEX
   HX - HEAT INDEX
  VSB - VISIBILITY
$$




USA.gov is the U.S. government's official web portal to all federal, state and local government web resources and services.